Location: Brabourne
(51.1333°N, 1.0000°E)
Time: 07:50:15
(UTC+00:00)

FALCON 9 DEB - Pass Details

Date: 20 June 2021
Orbit: 362 x 379 km, 53.0° (Epoch: 02 August)

Event Time Altitude Azimuth Distance (km) Brightness Sun altitude
Rises 23:02:46 0° 253° (WSW) 2,263 6.7 -14.5°
Reaches altitude 10° 23:04:49 10° 254° (WSW) 1,412 5.7 -14.5°
Drops below altitude 10° 23:11:09 10° 73° (ENE) 1,416 5.8 -14.7°
Maximum altitude 00:43:50 59° 3° (N) 451 3.5 -14.7°
Sets 00:49:02 0° 89° (E) 2,264 6.9 -14.6°
